www.pogodaiklimat.ru

Погода и климат >> Архив погоды >> Индонезия >> Танах Мерах


ПОГОДА в Танах Мерах

  • Прогноз погоды в Танах Мерах
  • Монитор погоды в Танах Мерах

АРХИВ ПОГОДЫ в Танах Мерах

Время (UTC), дата Ветер
(напр.,м/с)
 
Видим.   Явления Облачность Т
(С)
Тd
(С)
f
(%)
Тe
(С)
Тes
(С)
Комфортность P
(гПа)
Po
(гПа)
Тmin
(С)
Tmax
(С)
R
(мм)
R24
(мм)
S
(см)
18 16.01 СЗ 1 8000 м 6/5 270 м
[Sc Ac lent Ci sp]
+25.0 +24.3 96 +35 +35 очень
душно
1007.1 1003.9
21 16.01 штиль 0 7000 м 9/8 270 м
[Sc Ac lent Ci sp]
+24.7 +24.2 97 +34 +34 очень
душно
1008.7 1005.5
00 17.01 СЗ 2 7000 м 9/8 270 м
[Sc Ac lent Ci sp]
+27.1 +25.7 92 +40 +42 очень
душно
1010.1 1006.9 +24.4 1
03 17.01 СЗ 2 8000 м 9/8 270 м
[Sc Ac lent Ci sp]
+30.9 +25.3 72 +45 +48 опасность
перегрева
1007.0 1003.9
06 17.01 С 2 6000 м в посл. час дождь 9/8 270 м
[Cu Sc Ac lent Ci sp]
+26.0 +24.4 91 +36 +38 очень
душно
1005.3 1002.1 7
09 17.01 ЮЗ 2 8000 м 9/8 270 м
[Cu Sc Ac cuf Ci sp]
+26.8 +25.6 93 +39 +39 очень
душно
1007.2 1004.0
12 17.01 ЮВ 1 8000 м 8/6 300 м
[Sc Ac lent Ci sp]
+25.5 +24.6 95 +36 +36 очень
душно
1008.8 1005.6 +31.8
18 17.01 С 2 8000 м 9/8 240 м
[Sc Ac As Ci sp]
+23.9 +23.4 97 +32 +32 очень
душно
1007.3 1004.1
21 17.01 штиль 0 8000 м 9/8 240 м
[Sc Ac As Ci sp]
+24.1 +23.6 97 +33 +33 очень
душно
1008.3 1005.1
00 18.01 СЗ 3 10 км 8/6 270 м
[Sc Ac lent Ci sp]
+27.5 +25.3 88 +40 +44 очень
душно
1009.5 1006.3 +23.9 7
03 18.01 СЗ 2 7000 м слаб. дождь 9/8 270 м
[Cu Sc Ac lent Ci sp]
+29.4 +25.2 78 +43 +46 опасность
перегрева
1007.8 1004.7 1
06 18.01 Ю 3 10 км {дождь} 9/8 270 м
[Cu Sc Ac trans Ci fib]
+29.4 +25.4 79 +43 +44 опасность
перегрева
1005.3 1002.2 0.2
09 18.01 штиль 0 2000 м в посл. час дождь 9/8 240 м
[Cu Sc Ac trans Ci fib]
+25.3 +24.4 95 +35 +35 очень
душно
1008.2 1005.0 30
12 18.01 Ю 1 1000 м слаб. дождь 10/8 240 м
[Sc Ac lent Ci sp]
+24.9 +24.2 96 +34 +34 очень
душно
1010.3 1007.1 +32.6 7
15 18.01 СЗ 2 3000 м слаб. дождь 10/8 240 м
[Sc Ac As Ci sp]
+24.3 +23.8 97 +33 +33 очень
душно
1010.5 1007.3 6
18 18.01 СЗ 3 3000 м слаб. дождь 10/8 240 м
[Sc Ac As Ci sp]
+23.8 +23.3 97 +32 +32 очень
душно
1009.0 1005.8 6
21 18.01 З 3 3000 м слаб. дождь 10/8 240 м
[Sc As op Ci sp]
+23.8 +23.1 96 +32 +32 очень
душно
1010.8 1007.6 3
00 19.01 СЗ 3 5000 м {дождь} 9/8 240 м
[Sc Ac lent Ci sp]
+26.1 +24.3 90 +36 +38 очень
душно
1011.2 1008.0 +23.7 0.2
03 19.01 З 3 9000 м 8/6 300 м
[Sc Ac As Ci sp]
+30.5 +24.9 72 +44 +49 опасность
перегрева
1008.8 1005.7
06 19.01 СЗ 2 9000 м 8/6 300 м
[Sc Ac As Ci sp]
+31.7 +24.8 67 +45 +48 опасность
перегрева
1006.2 1003.1
09 19.01 З 2 9000 м 9/8 270 м
[Cu Sc Ac As Ci sp]
+29.2 +24.7 77 +42 +42 опасность
перегрева
1006.7 1003.6
12 19.01 штиль 0 8000 м зарница 9/8 270 м
[Cu Sc Ac As Ci sp]
+26.9 +24.9 89 +39 +39 очень
душно
1008.8 1005.6 +32.3
15 19.01 штиль 0 8000 м 8/6 270 м
[Sc Ac lent Ci sp]
+26.0 +24.8 93 +37 +37 очень
душно
1009.0 1005.8
18 19.01 штиль 0 8000 м 9/8 240 м
[Sc Ac lent Ci sp]
+25.5 +24.6 95 +36 +36 очень
душно
1007.7 1004.5
21 19.01 штиль 0 8000 м в посл. час дождь 10/8 240 м
[Sc Ac cuf Ci sp]
+25.2 +24.7 97 +35 +35 очень
душно
1008.6 1005.4 0.6
00 20.01 СЗ 2 8000 м 10/8 240 м
[Sc Ac cuf Ci sp]
+28.2 +25.2 84 +41 +42 опасность
перегрева
1009.8 1006.6 +25.1 0.6
03 20.01 С 2 8000 м 9/8 270 м
[Cu Sc Ac As Ci sp]
+30.1 +24.3 71 +42 +45 опасность
перегрева
1008.0 1004.9
09 20.01 СЗ 3 7000 м 9/8 270 м
[Cu Sc Ac lent Ci sp]
+28.0 +24.4 81 +39 +39 очень
душно
1006.6 1003.4
12 20.01 З 1 7000 м 9/6 300 м
[Sc Ac lent Ci sp]
+26.7 +25.3 92 +39 +39 очень
душно
1008.1 1004.9 +33.2
15 20.01 З 1 7000 м 9/6 300 м
[Sc Ac As Ci sp]
+26.2 +25.0 93 +37 +37 очень
душно
1008.1 1004.9
18 20.01 СЗ 2 7000 м 8/6 270 м
[Sc Ac lent Ci sp]
+25.6 +24.6 94 +36 +36 очень
душно
1006.5 1003.3
21 20.01 штиль 0 6000 м {дождь} 9/8 240 м
[Sc Ac lent Ci sp]
+25.3 +24.6 96 +36 +36 очень
душно
1008.4 1005.2 0.2
00 21.01 С 2 6000 м {дождь} 9/8 270 м
[Sc Ac lent Ci sp]
+26.6 +25.6 94 +39 +41 очень
душно
1009.3 1006.1 +25.3 0.2
03 21.01 СЗ 1 7000 м 9/8 270 м
[Cu Sc Ac lent Ci sp]
+29.7 +25.7 79 +44 +48 опасность
перегрева
1007.6 1004.5
06 21.01 З 1 7000 м 9/8 270 м
[Cu Sc Ac lent Ci sp]
+32.0 +25.4 68 +46 +48 опасность
перегрева
1005.0 1001.9
09 21.01 ЮЗ 4 7000 м слаб. дождь 10/8 270 м
[Cu Sc Ac lent Ci sp]
+26.5 +23.6 84 +36 +36 очень
душно
1007.5 1004.3 0.4
12 21.01 СВ 2 7000 м {дождь} 9/8 270 м
[Cu Sc Ac lent Ci sp]
+25.1 +24.1 94 +35 +35 очень
душно
1009.4 1006.2 +32.3 1
15 21.01 СВ 2 2000 м слаб. дождь 10/8 240 м
[Cb cap Ac As Ci sp]
+25.4 +24.7 96 +36 +36 очень
душно
1010.0 1006.8 2
18 21.01 СВ 3 5000 м в посл. час дождь 10/8 240 м
[Sc Ac As Ci sp]
+24.7 +24.0 96 +34 +34 очень
душно
1008.4 1005.2 2
21 21.01 штиль 0 8000 м 9/8 240 м
[Sc Ac lent Ci sp]
+24.0 +23.5 97 +32 +32 очень
душно
1008.6 1005.4
00 22.01 СВ 2 10 км 8/6 270 м
[Sc Ac trans Ci fib]
+28.4 +25.4 84 +42 +46 опасность
перегрева
1008.9 1005.7 +24.0
03 22.01 Ю 2 10 км 8/6 300 м
[Cu Sc Ac trans Ci fib]
+32.4 +25.5 67 +47 +54 опасность
перегрева
1007.8 1004.7
06 22.01 ЮЗ 2 10 км 8/6 300 м
[Cu Sc Ac trans Ci fib]
+32.3 +24.9 65 +46 +48 опасность
перегрева
1005.7 1002.6
09 22.01 В 2 7000 м 9/8 300 м
[Cu Sc Ac lent Ci sp]
+27.5 +24.4 83 +39 +39 очень
душно
1007.3 1004.1
12 22.01 СВ 1 7000 м 9/8 270 м
[Sc Ac lent Ci sp]
+26.1 +24.7 92 +37 +37 очень
душно
1010.1 1006.9 +33.8
15 22.01 штиль 0 7000 м 9/8 300 м
[Sc Ac lent Ci sp]
+25.5 +24.3 93 +35 +35 очень
душно
1009.9 1006.7
18 22.01 В 2 7000 м 9/5 270 м
[Sc Ac As Ci sp]
+25.0 +24.1 95 +34 +34 очень
душно
1008.1 1004.9
21 22.01 СЗ 1 7000 м 10/6 270 м
[Sc Ac As Ci sp]
+24.7 +24.2 97 +34 +34 очень
душно
1009.0 1005.8
00 23.01 штиль 0 6000 м 9/8 240 м
[Sc Ac lent Ci sp]
+26.6 +25.0 91 +38 +41 очень
душно
1010.2 1007.0 +24.5
03 23.01 З 3 9000 м 8/6 270 м
[Sc Ac trans Ci fib]
+31.0 +25.4 72 +45 +51 опасность
перегрева
1007.7 1004.6
06 23.01 СВ 2 10 км 6/5 300 м
[Cu Sc Ac trans Ci fib]
+34.1 +23.8 55 +45 +50 опасность
перегрева
1005.1 1002.0

 

Местоположение метеостанции Танах Мерах (Индонезия): широта -6.10 долгота 140.30 высота над уровнем моря 16 м.

В архиве по умолчанию представлена погода в Танах Мерах за последнюю неделю. Архивные данные за месяц целиком и за предыдущие месяцы, начиная с января 2011 года, Вы можете получить, выбрав интересующий диапазон дат из раскрывающегося списка и нажав кнопку "Ввод!".


*Определитесь, кто Вы:
робот инопланетянин человек

Внимание! Время в таблицах - всемирное. Для получения местного времени необходимо прибавить поправку, которая равна 9 ч.

Смотрите также архив погоды в соседних городах и на ближайших метеорологических станциях:

Погода в Мерауке (Индонезия) (264 км)
Погода в Вамене (Индонезия) (271 км)
Погода в Коконао (Индонезия) (338 км)
Погода в Сентани (Индонезия) (392 км)
Погода в Джаяпуре (Индонезия) (393 км)
Погода в Энаротали (Индонезия) (498 км)
Погода в Сарми (Индонезия) (507 км)
Погода на Острове Коконат (Квинсленд, Австралия) (535 км)
Погода на Острове Хорн (Квинсленд, Австралия) (544 км)
Погода в Набире (Индонезия) (615 км)

Пояснения к столбцам:

Ветер - указаны скорость ветра в м/с - средняя за 10 мин, порывы в срок и между сроками (в фигурных скобках) и направление, откуда дует ветер: С - северный, СВ - северо-восточный, В - восточный, ЮВ - юго-восточный, Ю - южный, ЮЗ - юго-западный, З - западный, СЗ - северо-западный.
Видимость - горизонтальная дальность видимости в метрах или километрах. При видимости от 1 до 10 км при отсутствии осадков обычно наблюдается дымка, при ухудшении видимости до 1 км и менее - туман. В сухую погоду видимость может ухудшаться дымом, пылью или мглою.
Явления - указаны атмосферные явления, наблюдавшиеся в срок или в последний час перед сроком; фигурными скобками обозначены явления, наблюдавшиеся между сроками (за 1-3 часа до срока); квадратными скобками обозначены град или гололедные отложения с указанием их диаметра в мм.
Облачность - указаны через наклонную черту общая и нижняя облачность в баллах и высота нижней границы облаков в метрах; квадратными скобками обозначены формы облаков: Ci - перистые, Cs - перисто-слоистые, Cc - перисто-кучевые, Ac - высококучевые, As - высокослоистые, Sc - слоисто-кучевые, Ns - слоисто-дождевые, Cu - кучевые, Cb - кучево-дождевые. Подробнее классификацию облаков см. в Атласе облаков (PDF).
T - Температура воздуха - температура, измеренная на высоте 2 м над землей.
Td - Температура точки росы - температура, при понижении до которой содержащийся в воздухе водяной пар достигнет насыщения.
f - Относительная влажность воздуха - влажноcть воздуха, измеренная на высоте 2 м над землей.
Te - Эффективная температура - температура, которую ощущает одетый по сезону человек в тени. Характеристика душности погоды. При расчете учитывается влияние влажности воздуха и скорости ветра на теплоощущения человека.
Tes - Эффективная температура на солнце - температура, которую ощущает человек, с поправкой на солнечный нагрев. Характеристика знойности погоды. Зависит от высоты солнца над горизонтом, облачности и скорости ветра. Ночью, в пасмурную погоду, а также при ветре 12 м/с и более поправка равна нулю.
P - Атмосферное давление - приведенное к уровню моря атмосферное давление.
Po - Атмосферное давление - измеренное на уровне метеостанции атмосферное давление.
Tmin - Минимальная температура - минимум температуры воздуха на высоте 2 м над землей.
Tmax - Максимальная температура - максимум температуры воздуха на высоте 2 м над землей.
R - Количество осадков - Количество выпавших осадков за период времени, мм. При наведении курсора мыши на число - период времени, за который выпало указанное количество осадков.
R24 - Количество осадков - Количество выпавших осадков за 24 часа, мм.
S - Снежный покров - Высота снежного покрова, см. При наведении курсора мыши на число - состояние снежного покрова и степень покрытия местности в баллах.